N8JE Weather Reports


time (UTC)temp
C
wind
direction
speed
KPH
gust
KPH
rain 1hr
cm
rain 24hr
cm
rain mn
cm
humidity
%
barometer
mb
20260503181004 15 221 8.0 20.9 0.00 0.00 0.00 38 1016.8
20260503180004 15 180 8.0 20.9 0.00 0.00 0.00 39 1017.0
20260503175504 16 249 9.7 12.9 0.00 0.00 0.00 37 1017.2
20260503175004 15 243 8.0 22.5 0.00 0.00 0.00 38 1017.1
20260503174504 15 253 4.8 29.0 0.00 0.00 0.00 39 1017.2
20260503174004 15 259 8.0 16.1 0.00 0.00 0.00 37 1017.3
20260503173504 15 239 8.0 20.9 0.00 0.00 0.00 38 1017.4
20260503173004 15 232 8.0 22.5 0.00 0.00 0.00 39 1017.5
20260503171504 15 241 14.5 24.1 0.00 0.00 0.00 38 1017.5
20260503170505 15 210 12.9 20.9 0.00 0.00 0.00 41 1017.7
20260503151004 12 278 4.8 9.7 0.00 0.00 0.00 50 1018.8
20260503110504 2 240 3.2 8.0 0.00 0.00 0.00 78 1018.7
20260503090504 1 273 0.0 1.6 0.00 0.00 0.00 85 1018.3
20260503081504 1 224 0.0 0.0 0.00 0.00 0.00 85 1018.1
20260503080504 1 224 0.0 0.0 0.00 0.00 0.00 84 1018.1
20260503072504 1 247 0.0 0.0 0.00 0.00 0.00 82 1018.1
20260503072004 1 248 0.0 0.0 0.00 0.00 0.00 83 1018.0
20260503071504 1 223 0.0 0.0 0.00 0.00 0.00 83 1018.1
20260503071004 1 223 0.0 0.0 0.00 0.00 0.00 84 1018.1
20260503070505 1 219 0.0 0.0 0.00 0.00 0.00 84 1018.1
20260503055004 0 353 0.0 0.0 0.00 0.00 0.00 87 1018.5
20260503054504 0 353 0.0 0.0 0.00 0.00 0.00 87 1018.5
20260503054004 0 353 0.0 0.0 0.00 0.00 0.00 88 1018.5
20260503053504 0 353 0.0 0.0 0.00 0.00 0.00 87 1018.6
20260503052504 0 353 0.0 0.0 0.00 0.00 0.00 88 1018.6
20260503051503 0 353 0.0 0.0 0.00 0.00 0.00 88 1018.5
20260503051004 0 353 0.0 0.0 0.00 0.00 0.00 88 1018.5
20260503050504 0 353 0.0 0.0 0.00 0.00 0.00 89 1018.6
20260503050005 0 353 0.0 0.0 0.00 0.00 0.00 88 1018.6
20260503045503 0 353 0.0 0.0 0.00 0.00 0.00 88 1018.6
20260503045004 0 353 0.0 0.0 0.00 0.00 0.00 88 1018.5
20260503044504 0 353 0.0 0.0 0.00 0.00 0.00 88 1018.5
20260503044004 0 353 0.0 0.0 0.00 0.00 0.00 87 1018.6
20260503043504 0 353 0.0 0.0 0.00 0.00 0.00 88 1018.5
20260503043004 0 353 0.0 0.0 0.00 0.00 0.00 87 1018.4
20260503042504 0 353 0.0 0.0 0.00 0.00 0.00 86 1018.4
20260503041504 0 353 0.0 0.0 0.00 0.00 0.00 86 1018.3
20260503041004 0 353 0.0 0.0 0.00 0.00 0.00 86 1018.3
20260503040504 0 353 0.0 0.0 0.00 0.00 0.00 86 1018.4
20260503035505 1 353 0.0 0.0 0.00 0.00 0.00 85 1018.4
20260503035004 1 353 0.0 0.0 0.00 0.00 0.00 84 1018.4
20260503034503 1 353 0.0 0.0 0.00 0.00 0.00 83 1018.4
20260503034004 1 353 0.0 0.0 0.00 0.00 0.00 83 1018.5
20260503033504 1 353 0.0 0.0 0.00 0.00 0.00 82 1018.4
20260503033004 1 353 0.0 0.0 0.00 0.00 0.00 82 1018.5
20260503032504 1 353 0.0 0.0 0.00 0.00 0.00 82 1018.5
20260503032003 2 353 0.0 0.0 0.00 0.00 0.00 82 1018.5
20260503031504 2 353 0.0 0.0 0.00 0.00 0.00 82 1018.5
20260503030504 2 353 0.0 0.0 0.00 0.00 0.00 81 1018.6
20260503030003 2 353 0.0 0.0 0.00 0.00 0.00 80 1018.6
20260503025504 2 353 0.0 0.0 0.00 0.00 0.00 80 1018.6
20260503025005 2 353 0.0 0.0 0.00 0.00 0.00 80 1018.6
20260503024505 2 353 0.0 0.0 0.00 0.00 0.00 78 1018.6
20260503023505 2 353 0.0 0.0 0.00 0.00 0.00 78 1018.6
20260503023005 2 353 0.0 0.0 0.00 0.00 0.00 78 1018.7
20260503022505 2 353 0.0 0.0 0.00 0.00 0.00 79 1018.7
20260503022004 2 353 0.0 0.0 0.00 0.00 0.00 77 1018.7
20260503021505 2 353 0.0 0.0 0.00 0.00 0.00 76 1018.7
20260503021005 2 353 0.0 0.0 0.00 0.00 0.00 75 1018.7
20260503020504 2 353 0.0 0.0 0.00 0.00 0.00 74 1018.7
20260503020004 2 353 0.0 0.0 0.00 0.00 0.00 73 1018.7
20260503015505 2 353 0.0 0.0 0.00 0.00 0.00 72 1018.6
20260503015005 3 353 0.0 0.0 0.00 0.00 0.00 71 1018.6
20260503014504 3 353 0.0 0.0 0.00 0.00 0.00 70 1018.5
20260503013506 3 353 0.0 0.0 0.00 0.00 0.00 69 1018.4
20260503013005 3 353 0.0 0.0 0.00 0.00 0.00 68 1018.4
20260503012504 4 353 0.0 0.0 0.00 0.00 0.00 66 1018.4
20260503012005 5 353 0.0 0.0 0.00 0.00 0.00 64 1018.3
20260503011505 5 353 0.0 0.0 0.00 0.00 0.00 63 1018.3
20260503011006 5 353 0.0 0.0 0.00 0.00 0.00 62 1018.3
20260503010505 6 353 0.0 0.0 0.00 0.00 0.00 60 1018.3
20260503005505 6 353 0.0 1.6 0.00 0.00 0.00 59 1018.2
20260503004506 6 353 0.0 1.6 0.00 0.00 0.00 58 1018.2
20260503004005 6 349 1.6 3.2 0.00 0.00 0.00 57 1018.0
20260503003505 6 1 0.0 1.6 0.00 0.00 0.00 56 1018.0
20260503003004 7 4 0.0 1.6 0.00 0.00 0.00 56 1018.0
20260503002505 7 17 1.6 8.0 0.00 0.00 0.00 55 1018.0
20260503002005 7 352 1.6 8.0 0.00 0.00 0.00 55 1018.0
20260503001005 7 8 3.2 4.8 0.00 0.00 0.00 54 1017.9
20260503000505 7 347 4.8 9.7 0.00 0.00 0.00 54 1017.9
20260503000004 7 1 3.2 9.7 0.00 0.00 0.00 54 1017.9
20260502235505 7 328 4.8 9.7 0.00 0.00 0.00 53 1017.9
20260502235004 7 357 4.8 8.0 0.00 0.00 0.00 54 1017.9
20260502234505 7 316 3.2 8.0 0.00 0.00 0.00 54 1017.9
20260502234004 7 344 4.8 9.7 0.00 0.00 0.00 54 1017.9
20260502233504 7 33 6.4 12.9 0.00 0.00 0.00 53 1017.8
20260502233005 7 337 4.8 9.7 0.00 0.00 0.00 53 1017.8
20260502232005 7 17 6.4 9.7 0.00 0.00 0.00 52 1017.8
20260502231504 7 353 4.8 9.7 0.00 0.00 0.00 52 1017.8
20260502230504 7 325 3.2 9.7 0.00 0.00 0.00 52 1017.8
20260502225504 7 346 6.4 12.9 0.00 0.00 0.00 50 1017.7
20260502225005 7 6 8.0 9.7 0.00 0.00 0.00 50 1017.7
20260502224504 7 5 8.0 19.3 0.00 0.00 0.00 49 1017.8
20260502224004 7 328 4.8 11.3 0.00 0.00 0.00 50 1017.8
20260502223505 8 343 4.8 9.7 0.00 0.00 0.00 50 1017.7
20260502222505 8 354 8.0 14.5 0.00 0.00 0.00 50 1017.7
20260502221505 8 3 4.8 11.3 0.00 0.00 0.00 50 1017.6
20260502221004 8 9 8.0 14.5 0.00 0.00 0.00 49 1017.6
20260502220504 8 8 8.0 12.9 0.00 0.00 0.00 49 1017.7
20260502220005 8 355 8.0 12.9 0.00 0.00 0.00 49 1017.6
20260502215004 8 25 8.0 14.5 0.00 0.00 0.00 50 1017.6
20260502214504 8 18 6.4 12.9 0.00 0.00 0.00 49 1017.6
20260502213505 8 338 4.8 12.9 0.00 0.00 0.00 50 1017.6
20260502213005 8 12 8.0 14.5 0.00 0.00 0.00 50 1017.6
20260502212504 8 22 6.4 11.3 0.00 0.00 0.00 49 1017.5
20260502212005 8 340 8.0 11.3 0.00 0.00 0.00 48 1017.4
20260502211504 8 351 8.0 16.1 0.00 0.00 0.00 48 1017.4
20260502211004 8 338 8.0 16.1 0.00 0.00 0.00 48 1017.4
20260502210504 8 35 9.7 19.3 0.00 0.00 0.00 48 1017.3
20260502210004 8 330 8.0 11.3 0.00 0.00 0.00 47 1017.4
20260502205504 8 9 8.0 14.5 0.00 0.00 0.00 50 1017.5
20260502205004 8 354 8.0 14.5 0.00 0.00 0.00 50 1017.5
20260502204504 8 18 6.4 19.3 0.00 0.00 0.00 50 1017.4
20260502204004 8 33 6.4 16.1 0.00 0.00 0.00 50 1017.4
20260502203504 8 10 11.3 14.5 0.00 0.00 0.00 49 1017.4
20260502202504 8 18 9.7 19.3 0.00 0.00 0.00 48 1017.5
20260502202004 8 15 8.0 12.9 0.00 0.00 0.00 48 1017.5
20260502201505 8 16 9.7 16.1 0.00 0.00 0.00 47 1017.5
20260502201004 8 19 3.2 12.9 0.00 0.00 0.00 48 1017.6
20260502200504 8 341 8.0 11.3 0.00 0.00 0.00 46 1017.6
20260502200004 8 4 9.7 16.1 0.00 0.00 0.00 45 1017.7
20260502195504 8 346 6.4 16.1 0.00 0.00 0.00 46 1017.6
20260502195004 8 352 9.7 19.3 0.00 0.00 0.00 47 1017.7
20260502194004 8 20 8.0 16.1 0.00 0.00 0.00 48 1017.8
20260502193505 8 1 9.7 14.5 0.00 0.00 0.00 47 1017.8
20260502193004 8 12 9.7 20.9 0.00 0.00 0.00 47 1017.9
20260502192505 8 24 11.3 20.9 0.00 0.00 0.00 46 1017.9
20260502192004 8 330 9.7 16.1 0.00 0.00 0.00 49 1017.8
20260502191504 8 335 9.7 14.5 0.00 0.00 0.00 46 1017.9
20260502191004 8 353 11.3 24.1 0.00 0.00 0.00 45 1017.9
20260502190505 9 33 8.0 12.9 0.00 0.00 0.00 47 1017.8
20260502190005 8 20 8.0 14.5 0.00 0.00 0.00 48 1017.9
20260502185004 8 12 8.0 20.9 0.00 0.00 0.00 45 1018.0
20260502184504 8 7 9.7 16.1 0.00 0.00 0.00 49 1018.0
20260502184004 8 308 8.0 12.9 0.00 0.00 0.00 48 1018.0
20260502183504 8 8 11.3 19.3 0.00 0.00 0.00 47 1018.1
20260502183004 8 15 11.3 25.7 0.00 0.00 0.00 47 1018.1
20260502182504 9 4 9.7 19.3 0.00 0.00 0.00 48 1018.0
20260502182004 8 357 9.7 16.1 0.00 0.00 0.00 45 1018.0